Miscellaneous Local Product
Issued by NWS North Platte, NE

Home | Current Version | Previous Version | Text Only | Print | Product List | Glossary On
Versions: 1 2 3 4 5 6 7 8 9 10 11 12 13 14 15 16 17 18 19 20 21 22 23 24 25 26 27 28 29 30 31 32 33 34 35 36 37 38 39 40 41 42 43 44 45 46 47 48 49 50
000
AXUS43 KLBF 210010
MISLBF


WESTERN AND NORTH CENTRAL NEBRASKA HOURLY WEATHER ROUNDUP
NATIONAL WEATHER SERVICE NORTH PLATTE NE
600 PM CST THU NOV 20 2014

***STATIONS NOT REPORTING VARIABLES SUCH AS SKY/WEATHER OR
PRESSURE ARE PROVIDED BY THE NEBRASKA DEPARTMENT OF
ROADS...RAWS...AND APRS NETWORKS...AND ARE NOT UNDER
NATIONAL WEATHER SERVICE QUALITY CONTROL***

...OBSERVATIONS IN AND NEAR THE EASTERN PANHANDLE OF NEBRASKA...

CITY           SKY/WX    TMP DP  RH WIND       PRES   REMARKS
PINE RIDGE     CLEAR     31  22  69 NE5       29.92S WCI  26
CHADRON        CLEAR     34  23  64 NW3       29.92S
ALLIANCE       CLEAR     31  16  54 S10       29.92S WCI  22
SIDNEY         CLEAR     37  15  40 S12       29.95S WCI  29
WHITECLAY        N/A     30  22  70 SE6         N/A  WCI  24
LISCO            N/A     41  13  31 NE7         N/A
BIG SPRINGS      N/A     41  20  43 S9          N/A
LEWELLEN         N/A     16  -2  45 CALM        N/A
$$

...OBSERVATIONS IN NORTH CENTRAL NEBRASKA...

CITY           SKY/WX    TMP DP  RH WIND       PRES   REMARKS
VALENTINE      CLEAR     28  21  75 E9        30.01S WCI  19
THEDFORD       CLEAR     34  22  61 SE9       30.01S WCI  27
AINSWORTH      CLEAR     26  21  83 E7        30.03S WCI  18
O`NEILL        PTCLDY    23  19  86 E7        30.10S WCI  14
ORD            CLEAR     29  20  69 SE9       30.09R WCI  20
BROKEN BOW     CLEAR     30  19  63 SE7       30.06R WCI  23
BROWNLEE         N/A     30  18  59 SE12        N/A  WCI  21
BREWSTER         N/A     32  21  64 SE7         N/A  WCI  26
COMSTOCK         N/A     32  23  69 S5          N/A  WCI  27
$$

...OBSERVATIONS IN SOUTHWEST NEBRASKA AND FAR NORTHEAST COLORADO...

CITY           SKY/WX    TMP DP  RH WIND       PRES   REMARKS
WRAY           FAIR      42  17  36 E8        29.98S
HOLYOKE        FAIR      37  19  48 SE9       29.98R WCI  31
IMPERIAL       CLEAR     31  16  54 SE7       30.00R WCI  24
OGALLALA       CLEAR     38  21  49 SE6       29.98R WCI  34
NORTH PLATTE   CLEAR     33  21  61 SE10      30.03R WCI  25
MCCOOK         CLEAR     34  20  56 E7        30.04R WCI  28
LEXINGTON      CLEAR     33  22  63 E6        30.06S WCI  27
PAXTON           N/A     32  18  56 CALM        N/A
GOTHENBURG       N/A     32  20  61 CALM        N/A
CALLAWAY         N/A     25  17  72 SE6         N/A  WCI  18
$$

...SOME WEATHER OBSERVATIONS FROM AROUND THE REGION...

CITY           SKY/WX    TMP DP  RH WIND       PRES   REMARKS
DENVER         CLOUDY    41  26  55 N7        29.95S
LARAMIE        MOCLDY    34  17  50 NW6       29.99R WCI  29
CHEYENNE       MOCLDY    42  10  27 S6        29.97R
SCOTTSBLUFF    CLEAR     35  15  44 E3        29.93R
RAPID CITY     CLEAR     22  18  85 SE5       29.92S WCI  16
PIERRE         PTCLDY    20  16  84 SE9       30.06R WCI   9
WINNER         FAIR      21  15  78 SE10      30.06S WCI  10
SIOUX FALLS    PTCLDY    13   7  77 CALM      30.17S
OMAHA          PTCLDY    25  17  72 NE3       30.24R
GRAND ISLAND   CLEAR     27  20  75 E7        30.13S WCI  19
KANSAS CITY    CLEAR     31  18  58 NE8       30.21R WCI  23
WICHITA        PTCLDY    45  24  43 E12       30.09R
HAYS           CLEAR     36  19  51 SE9       30.07R WCI  29
LIBERAL        CLEAR     46  27  46 E8        30.03R
GOODLAND       CLEAR     32  14  47 SE7       30.01R WCI  26
$$



USA.gov is the U.S. government's official web portal to all federal, state and local government web resources and services.